Home   Weather   Saint George's   Past weeks

Flag for Grenada Past Weather in Saint George's, Grenada — Yesterday and Last 2 Weeks

Now
79 °F

Sprinkles. Partly sunny.


Feels Like: 83 °F
Forecast: N/A
Wind: 14 mph from Southeast

Location: Point Salines Airport

Current Time: Sep 23, 2017 at 6:16:54 pm

Latest Report: Sep 23, 2017 at 5:00 pm


Visibility: N/A

Pressure: 29.89 "Hg

Humidity: 94%

Dew Point: 77 °F

Location of Saint George'sLocation

Past Weather in Saint George's — Graph

°F

Saint George's Temperature Yesterday

Maximum temperature yesterday: 88 °F (at 10:00 am)
Minimum temperature yesterday: 82 °F (at 12:00 am)
Average temperature yesterday: 85 °F

High & Low Weather Summary for the Past Weeks

 TemperatureHumidityPressure
High88 °F (Sep 9, 10:00 am)100% (Sep 13, 6:00 am)30.01 "Hg (Sep 13, 6:00 am)
Low75 °F (Sep 13, 6:00 am)70% (Sep 10, 9:00 am)29.77 "Hg (Sep 18, 2:00 pm)
Average84 °F84%29.87 "Hg
* Reported Sep 8 6:00 pm — Sep 23 5:00 pm, Saint George's. Weather by CustomWeather, © 2017

Note: Actual official high and low records may vary slightly from our data, if they occured in-between our weather recording intervals... More about our weather records

Advertising

Saint George's Weather History for the Previous 24 Hours

Scroll right to see more
 ConditionsComfort  
Time TempWeatherWind HumidityBarometerVisibility
5:00 pm
Sat, Sep 23
79 °FSprinkles. Partly sunny.14 mph94%29.89 "HgN/A
4:00 pm79 °FBroken clouds.14 mph94%29.86 "HgN/A
3:00 pm79 °FRain showers. More clouds than sun.29 mph94%29.89 "Hg5 mi
2:00 pm86 °FPassing clouds.13 mph84%29.89 "HgN/A
1:00 pm84 °FScattered clouds.16 mph89%29.92 "HgN/A
12:00 pm82 °FSprinkles. Broken clouds.10 mph94%29.92 "Hg6 mi
11:00 am81 °FThunderstorms. Partly sunny.2 mph94%29.92 "Hg6 mi
10:00 am81 °FThunderstorms. Scattered clouds.14 mph100%29.92 "Hg6 mi
9:00 am79 °FRain showers. Partly sunny.14 mph100%29.92 "Hg4 mi
8:00 am84 °FPassing clouds.18 mph89%29.89 "HgN/A
7:00 am82 °FScattered clouds.15 mph94%29.89 "Hg6 mi
6:00 am81 °FScattered clouds.12 mph94%29.86 "HgN/A
5:00 am81 °FRain showers. Passing clouds.21 mph89%29.86 "Hg3 mi
4:00 am84 °FPassing clouds.18 mph84%29.83 "HgN/A
3:00 am84 °FPassing clouds.16 mph84%29.83 "HgN/A
12:00 am84 °FPassing clouds.18 mph84%29.86 "HgN/A
11:00 pm
Fri, Sep 22
84 °FPassing clouds.15 mph84%29.86 "HgN/A
10:00 pm84 °FPassing clouds.18 mph84%29.86 "HgN/A
9:00 pm84 °FPassing clouds.21 mph84%29.86 "HgN/A
8:00 pm84 °FPassing clouds.14 mph84%29.86 "HgN/A
7:00 pm84 °FPassing clouds.23 mph84%29.83 "HgN/A
6:00 pm84 °FPartly sunny.21 mph84%29.83 "HgN/A
Weather by CustomWeather, © 2017

See weather overviewHow to use our weather pages